Pittsfield, MA

6:43 AM EDT on April 26, 2017 (GMT -0400)
Pittsfield Municipal

Weather History for KPSF - January, 2013

Change the Weather History Date:

Wednesday, January 30, 2013

  Actual Average Record
Temperature  
Mean Temperature 46 °F 21 °F  
Max Temperature 57 °F 29 °F 57 °F (1947)
Min Temperature 34 °F 12 °F -16 °F (1948)
Degree Days  
Heating Degree Days 19 44  
Month to date heating degree days 1256 1341  
Since 1 July heating degree days 3792 4179  
Cooling Degree Days 0 0  
Month to date cooling degree days 0 0  
Year to date cooling degree days 0 0  
Moisture  
Dew Point 45 °F    
Average Humidity 93    
Maximum Humidity 100    
Minimum Humidity 86    
Precipitation  
Precipitation 0.16 in 0.10 in 0.94 in (1939)
Month to date precipitation 1.21 2.83  
Year to date precipitation 1.21 2.83  
Sea Level Pressure  
Sea Level Pressure 29.70 in    
Wind  
Wind Speed 10 mph (SSE)    
Max Wind Speed 20 mph    
Max Gust Speed 30 mph    
Visibility 4 miles    
Events Fog , Rain    
T = Trace of Precipitation, MM = Missing Value Source: NWS Daily Summary

Daily Weather History Graph

Daily Weather History Graph

Search for Another Location

Airport or City:

Trip Planner

Search our weather history database for the weather conditions in past years. The results will help you decide how hot, cold, wet, or windy it might be!

Date:

Astronomy

Jan. 30, 2013 Rise Set
Actual Time 7:08 AM EST 5:04 PM EST
Civil Twilight 6:38 AM EST 5:34 PM EST
Nautical Twilight 6:05 AM EST 6:08 PM EST
Astronomical Twilight 5:31 AM EST 6:41 PM EST
Moon 9:06 PM EST (1/30) 8:29 AM EST (1/30)
Length of Visible Light 10h 56m
Length of Day
9h 56m
Waning Gibbous, 88% of the Moon is Illuminated
Jan 30
Waning Gibbous
Feb 3
Last Quarter
Feb 10
New
Feb 17
First Quarter
Feb 25
Full

Hourly Weather History & Observations

Time (EST) Temp. Windchill Dew Point Humidity Pressure Visibility Wind Dir Wind Speed Gust Speed Precip Events Conditions
12:16 AM 35.6 °F 32.8 °F 33.8 °F 93% 30.03 in 4.0 mi ENE 3.5 mph - 0.01 in Rain Light Rain
12:54 AM 35.1 °F 31.0 °F 34.0 °F 96% 30.04 in 6.0 mi NE 4.6 mph - 0.03 in Rain Light Rain
1:45 AM 35.6 °F 32.8 °F 35.6 °F 100% 29.99 in 8.0 mi Variable 3.5 mph - 0.00 in   Overcast
1:54 AM 36.0 °F 32.1 °F 35.1 °F 97% 30.00 in 8.0 mi Variable 4.6 mph - 0.00 in   Overcast
2:24 AM 37.4 °F 33.8 °F 35.6 °F 93% 29.97 in 4.0 mi Variable 4.6 mph - N/A   Overcast
2:36 AM 37.4 °F 33.8 °F 35.6 °F 93% 29.96 in 2.0 mi Variable 4.6 mph - N/A   Overcast
2:45 AM 35.6 °F 30.7 °F 35.6 °F 100% 29.96 in 1.5 mi East 5.8 mph - N/A   Overcast
2:54 AM 36.0 °F 32.1 °F 35.1 °F 97% 29.97 in 1.2 mi ENE 4.6 mph - N/A   Overcast
3:08 AM 35.6 °F 29.9 °F 33.8 °F 93% 29.95 in 0.8 mi NE 6.9 mph - N/A   Overcast
3:39 AM 33.8 °F 30.8 °F 33.8 °F 100% 29.93 in 0.2 mi ENE 3.5 mph - N/A Fog Fog
3:54 AM 35.1 °F 30.1 °F 35.1 °F 100% 29.94 in 0.5 mi NNE 5.8 mph - N/A Fog Fog
4:05 AM 33.8 °F 30.8 °F 33.8 °F 100% 29.91 in 0.2 mi NNE 3.5 mph - N/A Fog Fog
4:54 AM 35.1 °F 31.0 °F 35.1 °F 100% 29.91 in 0.2 mi Variable 4.6 mph - N/A Fog Fog
5:18 AM 37.4 °F 34.9 °F 37.4 °F 100% 29.88 in 0.5 mi East 3.5 mph - N/A Fog Fog
5:54 AM 36.0 °F 32.1 °F 36.0 °F 100% 29.90 in 0.5 mi NE 4.6 mph - N/A Fog Fog
6:02 AM 35.6 °F 31.7 °F 35.6 °F 100% 29.87 in 0.2 mi NE 4.6 mph - N/A Fog Fog
6:54 AM 37.0 °F 33.3 °F 37.0 °F 100% 29.85 in 0.2 mi NNE 4.6 mph - N/A Fog Fog
7:54 AM 42.1 °F 37.7 °F 39.9 °F 92% 29.82 in 0.2 mi Variable 6.9 mph - N/A Fog Fog
7:59 AM 42.8 °F 41.1 °F 41.0 °F 93% 29.80 in 1.2 mi Variable 3.5 mph - N/A   Overcast
8:12 AM 39.2 °F 37.0 °F 39.2 °F 100% 29.80 in 0.2 mi Variable 3.5 mph - N/A Fog Fog
8:54 AM 42.1 °F 37.1 °F 41.0 °F 96% 29.79 in 0.2 mi SE 8.1 mph - N/A Fog Fog
9:00 AM 44.6 °F 40.7 °F 44.6 °F 100% 29.77 in 1.0 mi Variable 6.9 mph - N/A   Overcast
9:04 AM 44.6 °F - 44.6 °F 100% 29.78 in 3.0 mi Calm Calm - N/A   Overcast
9:07 AM 44.6 °F 40.7 °F 44.6 °F 100% 29.77 in 1.8 mi Variable 6.9 mph - N/A   Overcast
9:12 AM 42.8 °F - 42.8 °F 100% 29.77 in 0.2 mi Calm Calm - N/A Fog Fog
9:26 AM 44.6 °F 39.2 °F 44.6 °F 100% 29.76 in 0.8 mi South 10.4 mph 17.3 mph N/A   Overcast
9:32 AM 46.4 °F 40.7 °F 46.4 °F 100% 29.76 in 2.0 mi South 12.7 mph 17.3 mph N/A   Overcast
9:40 AM 46.4 °F 41.1 °F 46.4 °F 100% 29.75 in 4.0 mi South 11.5 mph - N/A   Overcast
9:54 AM 48.0 °F - 46.9 °F 96% 29.75 in 4.0 mi South 12.7 mph - N/A   Overcast
10:49 AM 50.0 °F - 48.2 °F 94% 29.70 in 7.0 mi South 15.0 mph 23.0 mph N/A   Mostly Cloudy
10:54 AM 50.0 °F - 48.9 °F 96% 29.70 in 6.0 mi South 15.0 mph 23.0 mph N/A   Mostly Cloudy
11:54 AM 51.1 °F - 50.0 °F 96% 29.66 in 8.0 mi SSW 12.7 mph 23.0 mph N/A   Scattered Clouds
12:02 PM 51.8 °F - 50.0 °F 94% 29.66 in 8.0 mi SW 8.1 mph 17.3 mph N/A   Mostly Cloudy
12:22 PM 51.8 °F - 50.0 °F 94% 29.66 in 7.0 mi SSW 8.1 mph - N/A   Overcast
12:54 PM 53.1 °F - 51.1 °F 93% 29.62 in 7.0 mi South 15.0 mph 26.5 mph N/A   Overcast
1:54 PM 54.0 °F - 52.0 °F 93% 29.58 in 7.0 mi South 15.0 mph 26.5 mph N/A   Overcast
2:54 PM 53.1 °F - 52.0 °F 96% 29.57 in 3.0 mi South 13.8 mph 23.0 mph N/A   Overcast
3:08 PM 53.6 °F - 51.8 °F 94% 29.57 in 2.0 mi South 13.8 mph 21.9 mph N/A   Overcast
3:54 PM 54.0 °F - 53.1 °F 97% 29.56 in 2.5 mi South 11.5 mph - 0.01 in Rain Light Rain
4:10 PM 53.6 °F - 53.6 °F 100% 29.57 in 3.0 mi South 9.2 mph - 0.00 in Rain Light Rain
4:22 PM 53.6 °F - 53.6 °F 100% 29.56 in 3.0 mi South 12.7 mph 18.4 mph 0.01 in   Overcast
4:29 PM 53.6 °F - 53.6 °F 100% 29.56 in 2.0 mi South 13.8 mph - 0.01 in Rain Light Rain
4:54 PM 55.0 °F - 53.1 °F 93% 29.53 in 4.0 mi South 16.1 mph 21.9 mph 0.02 in Rain Light Rain
5:05 PM 55.4 °F - 53.6 °F 94% 29.54 in 3.0 mi South 15.0 mph 24.2 mph 0.01 in Rain Light Rain
5:17 PM 55.4 °F - 53.6 °F 94% 29.53 in 3.0 mi South 15.0 mph 23.0 mph 0.02 in Rain Light Rain
5:54 PM 57.0 °F - 54.0 °F 89% 29.51 in 5.0 mi South 15.0 mph 25.3 mph 0.03 in Rain Light Rain
6:16 PM 55.4 °F - 53.6 °F 94% 29.52 in 4.0 mi SSW 8.1 mph 18.4 mph 0.00 in Rain Light Rain
6:47 PM 55.4 °F - 53.6 °F 94% 29.52 in 5.0 mi SSW 9.2 mph - 0.01 in Rain Light Rain
6:54 PM 55.9 °F - 54.0 °F 93% 29.50 in 8.0 mi SW 10.4 mph 18.4 mph 0.01 in Rain Light Rain
7:22 PM 55.4 °F - 53.6 °F 94% 29.50 in 10.0 mi South 11.5 mph 23.0 mph 0.00 in   Overcast
7:54 PM 54.0 °F - 53.1 °F 97% 29.47 in 8.0 mi Variable 6.9 mph 21.9 mph 0.00 in Rain Light Rain
8:54 PM 53.1 °F - 52.0 °F 96% 29.47 in 8.0 mi South 11.5 mph 18.4 mph 0.00 in   Overcast
9:13 PM 53.6 °F - 51.8 °F 94% 29.48 in 7.0 mi SSW 10.4 mph 16.1 mph 0.00 in Rain Light Rain
9:54 PM 53.1 °F - 52.0 °F 96% 29.43 in 6.0 mi SSE 8.1 mph - 0.00 in Rain Light Rain
10:54 PM 52.0 °F - 51.1 °F 97% 29.36 in 5.0 mi SSE 12.7 mph - 0.01 in Rain Light Rain
11:30 PM 51.8 °F - 51.8 °F 100% 29.35 in 6.0 mi SSE 10.4 mph - 0.02 in Rain Light Rain
11:41 PM 51.8 °F - 50.0 °F 94% 29.34 in 5.0 mi SE 9.2 mph 19.6 mph 0.04 in Rain Light Rain
11:49 PM 51.8 °F - 50.0 °F 94% 29.33 in 5.0 mi Variable 5.8 mph - 0.04 in Rain Light Rain
11:54 PM 51.1 °F - 50.0 °F 96% 29.30 in 5.0 mi Variable 6.9 mph - 0.04 in Rain Light Rain